CSN3455 ZGSZ-ZUCK

Flight info

Callsign CSN3455
Flight time N/A
Altitude 34100
Route MIPAG1 MIPAG W21 NUSLA W22 TEPID W24 OSNOV G586 QP B330 ELKAL W179 SUMUN W3 AGTIS/K0859S1070 W3 ASIPO/K0863S1040 W678 SEGDA SEGDD2
Aircraft A320/M-SDE3FGHIRWY/LB1

Departure

Time N/A
Airport Shenzhen Bao'an International Airport (ZGSZ)

Arrival

Time 2026-04-27 08:57
Airport Chongqing Jiangbei International Airport (ZUCK)
Time Latitude Longitude Altitude Speed Heading
2026-04-27 07:15 24.52932 112.33933 34008 ft 433 kts 275°
2026-04-27 07:15 24.53558 112.27349 34005 ft 434 kts 275°
2026-04-27 07:16 24.54186 112.20746 34007 ft 435 kts 275°
2026-04-27 07:16 24.54815 112.14134 34013 ft 435 kts 275°
2026-04-27 07:17 24.55441 112.07517 34014 ft 435 kts 275°
2026-04-27 07:17 24.56057 112.00946 34017 ft 435 kts 275°
2026-04-27 07:18 24.56673 111.94343 34024 ft 435 kts 275°
2026-04-27 07:18 24.57293 111.87731 34021 ft 435 kts 275°
2026-04-27 07:19 24.57906 111.81127 34022 ft 435 kts 275°
2026-04-27 07:19 24.58512 111.74512 34012 ft 435 kts 274°
2026-04-27 07:20 24.59120 111.67889 34019 ft 435 kts 274°
2026-04-27 07:20 24.59725 111.61317 34015 ft 435 kts 274°
2026-04-27 07:21 24.60329 111.54697 34010 ft 435 kts 274°
2026-04-27 07:21 24.60923 111.48078 34005 ft 435 kts 274°
2026-04-27 07:22 24.61414 111.42584 34004 ft 435 kts 274°
2026-04-27 07:22 24.62012 111.35967 34002 ft 435 kts 274°
2026-04-27 07:23 24.62596 111.29360 34008 ft 435 kts 274°
2026-04-27 07:23 24.63166 111.22739 34004 ft 434 kts 274°
2026-04-27 07:24 24.63737 111.16123 33999 ft 434 kts 274°
2026-04-27 07:24 24.64305 111.09516 33989 ft 435 kts 274°
2026-04-27 07:25 24.64874 111.02934 33985 ft 435 kts 274°
2026-04-27 07:25 24.65439 110.96300 33983 ft 435 kts 274°
2026-04-27 07:26 24.65992 110.89667 33985 ft 436 kts 274°
2026-04-27 07:26 24.66593 110.83041 33985 ft 437 kts 278°
2026-04-27 07:26 24.67374 110.79801 33986 ft 440 kts 289°
2026-04-27 07:27 24.68694 110.76762 33986 ft 443 kts 299°
2026-04-27 07:27 24.72755 110.71618 33977 ft 449 kts 313°
2026-04-27 07:28 24.77266 110.66903 33980 ft 450 kts 313°
2026-04-27 07:28 24.81786 110.62125 33993 ft 451 kts 313°
2026-04-27 07:29 24.86323 110.57327 33992 ft 451 kts 313°
2026-04-27 07:29 24.90827 110.52571 33988 ft 451 kts 313°
2026-04-27 07:30 24.95366 110.47786 33992 ft 450 kts 313°
2026-04-27 07:30 24.99870 110.43028 33990 ft 450 kts 313°
2026-04-27 07:31 25.04381 110.38240 33994 ft 450 kts 314°
2026-04-27 07:31 25.08903 110.33459 33990 ft 450 kts 314°
2026-04-27 07:32 25.13431 110.28685 34005 ft 450 kts 313°
2026-04-27 07:32 25.17956 110.23903 34004 ft 450 kts 313°
2026-04-27 07:33 25.22468 110.19124 34003 ft 450 kts 314°
2026-04-27 07:33 25.26987 110.14400 34002 ft 450 kts 314°
2026-04-27 07:34 25.31545 110.09635 33999 ft 449 kts 314°
2026-04-27 07:34 25.36076 110.04885 34007 ft 449 kts 314°
2026-04-27 07:35 25.40576 110.00156 34006 ft 448 kts 314°
2026-04-27 07:35 25.45102 109.95392 34008 ft 448 kts 314°
2026-04-27 07:36 25.49627 109.90628 34013 ft 449 kts 314°
2026-04-27 07:36 25.54158 109.85856 34005 ft 449 kts 314°
2026-04-27 07:37 25.58683 109.81078 34006 ft 449 kts 314°
2026-04-27 07:37 25.63174 109.76338 33982 ft 449 kts 314°
2026-04-27 07:38 25.67701 109.71553 33980 ft 450 kts 314°
2026-04-27 07:38 25.72227 109.66767 33982 ft 450 kts 314°
2026-04-27 07:39 25.76479 109.61692 33978 ft 448 kts 302°
2026-04-27 07:39 25.79116 109.55510 33971 ft 443 kts 285°
2026-04-27 07:40 25.80847 109.48930 33964 ft 444 kts 285°
2026-04-27 07:40 25.82575 109.42398 33965 ft 444 kts 285°
2026-04-27 07:41 25.84311 109.35813 33961 ft 445 kts 285°
2026-04-27 07:41 25.86040 109.29222 33967 ft 444 kts 285°
2026-04-27 07:42 25.87763 109.22631 33958 ft 444 kts 285°
2026-04-27 07:42 25.89480 109.16035 33959 ft 445 kts 285°
2026-04-27 07:43 25.91200 109.09443 33971 ft 445 kts 285°
2026-04-27 07:43 25.92920 109.02845 33975 ft 444 kts 285°
2026-04-27 07:44 25.94663 108.96267 33983 ft 444 kts 285°
2026-04-27 07:44 25.96421 108.89698 33981 ft 444 kts 285°
2026-04-27 07:45 25.98167 108.83120 33986 ft 444 kts 285°
2026-04-27 07:45 25.99910 108.76545 33996 ft 443 kts 286°
2026-04-27 07:46 26.01653 108.69979 34003 ft 442 kts 286°
2026-04-27 07:46 26.03390 108.63434 34003 ft 441 kts 286°
2026-04-27 07:47 26.05119 108.56904 34006 ft 440 kts 286°
2026-04-27 07:47 26.06840 108.50418 34003 ft 440 kts 286°
2026-04-27 07:48 26.08565 108.43895 33999 ft 440 kts 286°
2026-04-27 07:48 26.10624 108.37516 34006 ft 439 kts 295°
2026-04-27 07:49 26.13273 108.31412 34008 ft 437 kts 295°
2026-04-27 07:50 26.18437 108.19481 34010 ft 436 kts 295°
2026-04-27 07:50 26.21065 108.13391 34010 ft 436 kts 295°
2026-04-27 07:51 26.23687 108.07298 34013 ft 436 kts 295°
2026-04-27 07:51 26.26310 108.01213 34012 ft 435 kts 295°
2026-04-27 07:52 26.28921 107.95135 34006 ft 435 kts 295°
2026-04-27 07:52 26.31535 107.89040 34003 ft 435 kts 294°
2026-04-27 07:53 26.34144 107.82944 34005 ft 436 kts 294°
2026-04-27 07:53 26.36762 107.76840 33988 ft 438 kts 294°
2026-04-27 07:54 26.39379 107.70696 34002 ft 437 kts 294°
2026-04-27 07:54 26.41984 107.64588 34022 ft 436 kts 294°
2026-04-27 07:55 26.44591 107.58480 34032 ft 435 kts 294°
2026-04-27 07:55 26.47164 107.52420 34034 ft 435 kts 294°
2026-04-27 07:56 26.49757 107.46317 34042 ft 435 kts 294°
2026-04-27 07:56 26.52340 107.40222 34033 ft 434 kts 294°
2026-04-27 07:57 26.54916 107.34127 34044 ft 433 kts 294°
2026-04-27 07:57 26.57487 107.28047 34060 ft 432 kts 294°
2026-04-27 07:58 26.60057 107.21983 34061 ft 431 kts 295°
2026-04-27 07:58 26.62616 107.15938 34065 ft 431 kts 294°
2026-04-27 07:59 26.65171 107.09887 34060 ft 430 kts 294°
2026-04-27 07:59 26.69015 107.00830 34063 ft 429 kts 294°
2026-04-27 08:00 26.71573 106.94798 34060 ft 429 kts 294°
2026-04-27 08:00 26.74127 106.88770 34063 ft 429 kts 295°
2026-04-27 08:01 26.77061 106.82978 34067 ft 431 kts 309°
2026-04-27 08:01 26.79236 106.80652 34061 ft 434 kts 321°
2026-04-27 08:01 26.81832 106.78909 34054 ft 439 kts 333°
2026-04-27 08:02 26.84755 106.77855 34050 ft 446 kts 346°
2026-04-27 08:02 26.87859 106.77530 34043 ft 450 kts 353°
2026-04-27 08:02 26.94087 106.77224 34030 ft 451 kts 353°
2026-04-27 08:03 27.00366 106.76905 34040 ft 452 kts 353°
2026-04-27 08:03 27.06656 106.76582 34051 ft 452 kts 353°
2026-04-27 08:04 27.12951 106.76249 34039 ft 453 kts 353°
2026-04-27 08:04 27.16093 106.76082 33863 ft 451 kts 353°
2026-04-27 08:04 27.19202 106.75921 33576 ft 441 kts 353°
2026-04-27 08:05 27.22218 106.75771 33446 ft 427 kts 353°
2026-04-27 08:05 27.25145 106.75625 33196 ft 417 kts 353°
2026-04-27 08:05 27.28022 106.75477 32781 ft 412 kts 353°
2026-04-27 08:05 27.30874 106.75322 32310 ft 408 kts 353°
2026-04-27 08:06 27.33708 106.75168 31666 ft 409 kts 354°
2026-04-27 08:06 27.36625 106.75010 30709 ft 430 kts 354°
2026-04-27 08:06 27.39678 106.74897 30467 ft 446 kts 356°
2026-04-27 08:06 27.42808 106.74863 30233 ft 453 kts 358°
2026-04-27 08:07 27.45977 106.74888 29995 ft 457 kts 358°
2026-04-27 08:07 27.49157 106.74942 29729 ft 459 kts 359°
2026-04-27 08:07 27.52366 106.74994 29457 ft 460 kts 358°
2026-04-27 08:07 27.55576 106.75027 29191 ft 461 kts 358°
2026-04-27 08:08 27.58740 106.75043 28934 ft 461 kts 358°
2026-04-27 08:08 27.61956 106.75046 28674 ft 462 kts 358°
2026-04-27 08:08 27.65169 106.75038 28426 ft 463 kts 358°
2026-04-27 08:08 27.68402 106.75025 28164 ft 464 kts 358°
2026-04-27 08:09 27.71638 106.75015 27988 ft 465 kts 358°
2026-04-27 08:09 27.74869 106.75014 28037 ft 466 kts 358°
2026-04-27 08:09 27.81368 106.75023 28034 ft 466 kts 358°
2026-04-27 08:10 27.87822 106.75037 28033 ft 466 kts 358°
2026-04-27 08:10 27.94309 106.75044 28034 ft 467 kts 358°
2026-04-27 08:11 28.00803 106.75043 28033 ft 467 kts 358°
2026-04-27 08:11 28.07302 106.75041 28029 ft 466 kts 358°
2026-04-27 08:12 28.13788 106.75050 28029 ft 467 kts 358°
2026-04-27 08:12 28.20291 106.75055 28047 ft 467 kts 358°
2026-04-27 08:13 28.26790 106.75060 27917 ft 467 kts 358°
2026-04-27 08:13 28.30043 106.75066 27665 ft 468 kts 358°
2026-04-27 08:13 28.33285 106.74889 27414 ft 467 kts 351°
2026-04-27 08:14 28.36501 106.74415 27170 ft 467 kts 350°
2026-04-27 08:14 28.39734 106.73937 26924 ft 468 kts 351°
2026-04-27 08:14 28.42974 106.73459 26681 ft 469 kts 351°
2026-04-27 08:14 28.46213 106.72981 26437 ft 470 kts 350°
2026-04-27 08:15 28.49457 106.72503 26209 ft 471 kts 350°
2026-04-27 08:15 28.52713 106.72022 25972 ft 472 kts 351°
2026-04-27 08:15 28.55969 106.71540 25734 ft 473 kts 350°
2026-04-27 08:15 28.59237 106.71058 25500 ft 474 kts 351°
2026-04-27 08:16 28.62504 106.70577 25266 ft 475 kts 351°
2026-04-27 08:16 28.65788 106.70092 25041 ft 475 kts 351°
2026-04-27 08:16 28.69070 106.69605 24818 ft 476 kts 351°
2026-04-27 08:16 28.72379 106.69432 24590 ft 477 kts
2026-04-27 08:17 28.75693 106.69599 24361 ft 475 kts 356°
2026-04-27 08:17 28.78928 106.69008 24138 ft 469 kts 341°
2026-04-27 08:17 28.81889 106.67599 23917 ft 465 kts 329°
2026-04-27 08:17 28.84581 106.65589 23697 ft 461 kts 319°
2026-04-27 08:18 28.86930 106.63128 23483 ft 456 kts 310°
2026-04-27 08:18 28.88971 106.60378 23216 ft 454 kts 307°
2026-04-27 08:18 28.90983 106.57601 22952 ft 452 kts 307°
2026-04-27 08:18 28.92968 106.54834 22691 ft 451 kts 307°
2026-04-27 08:19 28.94938 106.52060 22438 ft 449 kts 307°
2026-04-27 08:19 28.96896 106.49296 22179 ft 447 kts 307°
2026-04-27 08:19 28.98848 106.46543 21919 ft 445 kts 307°
2026-04-27 08:19 29.00794 106.43800 21675 ft 443 kts 307°
2026-04-27 08:20 29.02728 106.41076 21429 ft 441 kts 307°
2026-04-27 08:20 29.04660 106.38358 21168 ft 439 kts 307°
2026-04-27 08:20 29.06580 106.35658 20927 ft 437 kts 307°
2026-04-27 08:20 29.08490 106.32969 20691 ft 436 kts 307°
2026-04-27 08:21 29.10384 106.30297 20446 ft 425 kts 307°
2026-04-27 08:21 29.12225 106.27706 20206 ft 411 kts 307°
2026-04-27 08:21 29.13406 106.26044 20050 ft 402 kts 307°
2026-04-27 08:21 29.15717 106.22785 19733 ft 386 kts 307°
2026-04-27 08:22 29.17376 106.20436 19503 ft 376 kts 307°
2026-04-27 08:22 29.18994 106.18140 19267 ft 366 kts 307°
2026-04-27 08:22 29.20043 106.16651 19122 ft 360 kts 307°
2026-04-27 08:22 29.22118 106.13732 18818 ft 352 kts 310°
2026-04-27 08:23 29.23916 106.11866 18595 ft 350 kts 322°
2026-04-27 08:23 29.25999 106.10452 18371 ft 347 kts 329°
2026-04-27 08:23 29.27422 106.09561 18220 ft 343 kts 329°
2026-04-27 08:23 29.29492 106.08264 17967 ft 336 kts 329°
2026-04-27 08:24 29.31613 106.07189 17708 ft 333 kts 340°
2026-04-27 08:24 29.33851 106.06569 17457 ft 329 kts 345°
2026-04-27 08:24 29.36806 106.05828 17121 ft 326 kts 345°
2026-04-27 08:24 29.38271 106.05460 16955 ft 325 kts 345°
2026-04-27 08:25 29.40515 106.05148 16707 ft 327 kts 357°
2026-04-27 08:25 29.42787 106.05289 16468 ft 326 kts
2026-04-27 08:25 29.45041 106.05475 16212 ft 323 kts
2026-04-27 08:25 29.47274 106.05655 15976 ft 320 kts
2026-04-27 08:26 29.49457 106.06070 15731 ft 318 kts 13°
2026-04-27 08:26 29.51536 106.06908 15499 ft 314 kts 18°
2026-04-27 08:26 29.53597 106.07785 15143 ft 316 kts 18°
2026-04-27 08:26 29.55664 106.08666 14737 ft 319 kts 18°
2026-04-27 08:27 29.57696 106.09750 14156 ft 325 kts 30°
2026-04-27 08:27 29.59530 106.11262 13569 ft 322 kts 35°
2026-04-27 08:27 29.61316 106.12806 12928 ft 319 kts 35°
2026-04-27 08:27 29.63060 106.14306 12308 ft 316 kts 35°
2026-04-27 08:28 29.64712 106.15947 11686 ft 313 kts 46°
2026-04-27 08:28 29.66059 106.17901 11081 ft 310 kts 52°
2026-04-27 08:28 29.67090 106.20047 10474 ft 306 kts 73°
2026-04-27 08:28 29.67312 106.22447 9905 ft 301 kts 97°
2026-04-27 08:29 29.66708 106.24705 9273 ft 295 kts 120°
2026-04-27 08:29 29.65422 106.26490 8639 ft 289 kts 143°
2026-04-27 08:29 29.63717 106.27678 8017 ft 284 kts 153°
2026-04-27 08:29 29.61981 106.28748 7398 ft 281 kts 153°
2026-04-27 08:30 29.60273 106.29801 6891 ft 274 kts 153°
2026-04-27 08:30 29.58642 106.30811 6869 ft 264 kts 153°
2026-04-27 08:30 29.57042 106.31802 6869 ft 265 kts 153°
2026-04-27 08:30 29.55416 106.32810 6872 ft 265 kts 152°
2026-04-27 08:31 29.53789 106.33817 6865 ft 266 kts 153°
2026-04-27 08:31 29.52159 106.34822 6794 ft 264 kts 152°
2026-04-27 08:31 29.50547 106.35819 6757 ft 262 kts 153°
2026-04-27 08:31 29.48947 106.36808 6633 ft 260 kts 153°
2026-04-27 08:32 29.47354 106.37789 6528 ft 259 kts 154°
2026-04-27 08:32 29.45772 106.38762 6403 ft 256 kts 153°
2026-04-27 08:32 29.44232 106.39759 6277 ft 251 kts 145°
2026-04-27 08:32 29.43151 106.41264 6147 ft 243 kts 111°
2026-04-27 08:33 29.42879 106.43125 6020 ft 235 kts 84°
2026-04-27 08:33 29.43287 106.44875 5887 ft 226 kts 71°
2026-04-27 08:33 29.43778 106.46559 5766 ft 218 kts 71°
2026-04-27 08:33 29.44249 106.48182 5639 ft 210 kts 71°
2026-04-27 08:34 29.44692 106.49721 5557 ft 198 kts 71°
2026-04-27 08:34 29.45116 106.51196 5425 ft 191 kts 70°
2026-04-27 08:34 29.45527 106.52623 5305 ft 185 kts 70°
2026-04-27 08:34 29.45930 106.54025 5179 ft 186 kts 71°
2026-04-27 08:35 29.46335 106.55433 5048 ft 184 kts 70°
2026-04-27 08:35 29.46840 106.56728 4918 ft 177 kts 53°
2026-04-27 08:35 29.47676 106.57701 4800 ft 168 kts 32°
2026-04-27 08:35 29.48697 106.58250 4696 ft 154 kts 11°
2026-04-27 08:36 29.49722 106.58601 4737 ft 163 kts 13°
2026-04-27 08:36 29.50854 106.58994 4741 ft 173 kts 14°
2026-04-27 08:36 29.51986 106.59388 4707 ft 164 kts 15°
2026-04-27 08:36 29.53007 106.59745 4686 ft 145 kts 15°
2026-04-27 08:37 29.53919 106.60065 4983 ft 127 kts 12°
2026-04-27 08:37 29.54777 106.60386 5124 ft 140 kts 19°
2026-04-27 08:37 29.55771 106.60743 4615 ft 153 kts 12°
2026-04-27 08:37 29.56796 106.61076 4316 ft 152 kts 13°
2026-04-27 08:38 29.57796 106.61414 4097 ft 147 kts 16°
2026-04-27 08:38 29.58762 106.61745 3883 ft 142 kts 14°
2026-04-27 08:38 29.59686 106.62064 3687 ft 135 kts 14°
2026-04-27 08:38 29.60573 106.62371 3518 ft 132 kts 13°
2026-04-27 08:39 29.61443 106.62673 3363 ft 130 kts 13°
2026-04-27 08:39 29.62304 106.62972 3189 ft 128 kts 14°
2026-04-27 08:39 29.63154 106.63267 3029 ft 127 kts 16°
2026-04-27 08:39 29.63986 106.63556 2863 ft 126 kts 15°
2026-04-27 08:40 29.64834 106.63850 2716 ft 131 kts 15°
2026-04-27 08:40 29.65726 106.64160 2513 ft 134 kts 15°
2026-04-27 08:40 29.66616 106.64470 2342 ft 133 kts 15°
2026-04-27 08:40 29.67503 106.64778 2177 ft 134 kts 17°
2026-04-27 08:41 29.68403 106.65092 1989 ft 135 kts 17°
2026-04-27 08:41 29.69309 106.65407 1809 ft 136 kts 17°
2026-04-27 08:41 29.70219 106.65724 1630 ft 136 kts 17°
2026-04-27 08:41 29.71191 106.66072 1460 ft 153 kts 18°
2026-04-27 08:42 29.72239 106.66436 1465 ft 170 kts 17°
2026-04-27 08:42 29.73337 106.66817 1706 ft 176 kts 18°
2026-04-27 08:42 29.74573 106.67253 2490 ft 185 kts 16°
2026-04-27 08:42 29.75814 106.67679 3176 ft 187 kts 16°
2026-04-27 08:43 29.77050 106.68165 3811 ft 190 kts 28°
2026-04-27 08:43 29.78043 106.69175 4464 ft 194 kts 55°
2026-04-27 08:43 29.78516 106.70615 4816 ft 200 kts 88°
2026-04-27 08:43 29.78171 106.72139 4879 ft 199 kts 123°
2026-04-27 08:44 29.77384 106.73455 4888 ft 200 kts 125°
2026-04-27 08:44 29.76525 106.74705 4880 ft 199 kts 140°
2026-04-27 08:44 29.75299 106.75393 4878 ft 198 kts 171°
2026-04-27 08:44 29.73951 106.75253 4880 ft 196 kts 203°
2026-04-27 08:45 29.72734 106.74539 4884 ft 197 kts 203°
2026-04-27 08:45 29.71439 106.74042 4882 ft 197 kts 195°
2026-04-27 08:45 29.70107 106.73664 4882 ft 197 kts 194°
2026-04-27 08:45 29.68768 106.73306 4879 ft 197 kts 194°
2026-04-27 08:46 29.67436 106.72951 4884 ft 197 kts 193°
2026-04-27 08:46 29.66107 106.72596 4883 ft 197 kts 194°
2026-04-27 08:46 29.64766 106.72244 4880 ft 197 kts 194°
2026-04-27 08:46 29.63427 106.71896 4881 ft 197 kts 193°
2026-04-27 08:47 29.62096 106.71512 4882 ft 197 kts 195°
2026-04-27 08:47 29.60772 106.71106 4873 ft 197 kts 196°
2026-04-27 08:47 29.59473 106.70735 4878 ft 194 kts 196°
2026-04-27 08:47 29.58153 106.70382 4881 ft 194 kts 195°
2026-04-27 08:48 29.56845 106.70031 4886 ft 193 kts 196°
2026-04-27 08:48 29.55521 106.69677 4887 ft 197 kts 196°
2026-04-27 08:48 29.54193 106.69317 4890 ft 196 kts 196°
2026-04-27 08:48 29.52874 106.68946 4898 ft 195 kts 202°
2026-04-27 08:49 29.51767 106.68115 4896 ft 190 kts 232°
2026-04-27 08:49 29.51098 106.66820 4904 ft 189 kts 244°
2026-04-27 08:49 29.50495 106.65484 4913 ft 188 kts 244°
2026-04-27 08:49 29.49914 106.64202 4894 ft 174 kts 244°
2026-04-27 08:50 29.49373 106.63001 4895 ft 165 kts 246°
2026-04-27 08:50 29.49145 106.61736 4894 ft 164 kts 274°
2026-04-27 08:50 29.49469 106.60525 4900 ft 161 kts 301°
2026-04-27 08:50 29.50253 106.59632 4899 ft 160 kts 328°
2026-04-27 08:51 29.51320 106.59281 4890 ft 162 kts 358°
2026-04-27 08:51 29.52424 106.59544 4902 ft 164 kts 15°
2026-04-27 08:51 29.53513 106.59921 4850 ft 163 kts 14°
2026-04-27 08:51 29.54554 106.60281 4679 ft 150 kts 14°
2026-04-27 08:52 29.55552 106.60627 4523 ft 149 kts 14°
2026-04-27 08:52 29.56538 106.60968 4317 ft 148 kts 16°
2026-04-27 08:52 29.57521 106.61309 4136 ft 147 kts 14°
2026-04-27 08:52 29.58494 106.61647 3930 ft 146 kts 15°
2026-04-27 08:53 29.59457 106.61981 3754 ft 143 kts 15°
2026-04-27 08:53 29.60402 106.62310 3553 ft 141 kts 13°
2026-04-27 08:53 29.61341 106.62636 3383 ft 141 kts 14°
2026-04-27 08:53 29.62276 106.62961 3200 ft 139 kts 15°
2026-04-27 08:54 29.63187 106.63278 3025 ft 138 kts 16°
2026-04-27 08:54 29.64103 106.63596 2830 ft 137 kts 15°
2026-04-27 08:54 29.65018 106.63914 2659 ft 137 kts 15°
2026-04-27 08:54 29.65926 106.64230 2481 ft 136 kts 14°
2026-04-27 08:55 29.66835 106.64546 2303 ft 137 kts 15°
2026-04-27 08:55 29.67743 106.64862 2123 ft 136 kts 16°
2026-04-27 08:55 29.68652 106.65179 1938 ft 137 kts 17°
2026-04-27 08:55 29.69569 106.65498 1761 ft 138 kts 17°
2026-04-27 08:56 29.70493 106.65820 1562 ft 139 kts 19°
2026-04-27 08:56 29.71400 106.66143 1382 ft 139 kts 18°
2026-04-27 08:56 29.72248 106.66427 1329 ft 95 kts 16°
2026-04-27 08:56 29.72684 106.66573 1331 ft 51 kts 17°
2026-04-27 08:57 29.73086 106.66599 1327 ft 23 kts 333°
2026-04-27 08:57 29.73128 106.66499 1327 ft 11 kts 288°
2026-04-27 08:57 29.73132 106.66483 1330 ft 0 kts 288°
2026-04-27 08:59 29.73133 106.66480 1329 ft 2 kts 288°
2026-04-27 09:00 29.73137 106.66449 1327 ft 6 kts 267°
2026-04-27 09:00 29.73134 106.66388 1328 ft 10 kts 276°
2026-04-27 09:00 29.73106 106.66316 1329 ft 12 kts 216°
2026-04-27 09:00 29.73025 106.66273 1330 ft 14 kts 211°
2026-04-27 09:01 29.73047 106.66170 1333 ft 16 kts 321°
2026-04-27 09:01 29.73113 106.66096 1335 ft 11 kts 314°
2026-04-27 09:01 29.73162 106.66044 1336 ft 8 kts 322°
2026-04-27 09:01 29.73189 106.66020 1337 ft 1 kts 321°
2026-04-27 09:02 29.73190 106.66018 1337 ft 1 kts 321°